FW9915 Weather Reports


Display with metric or nautical units.
time (UTC)temp
F
wind
direction
speed
MPH
gust
MPH
rain 1hr
in
rain 24hr
in
rain mn
in
humidity
%
barometer
mb
20260903093532 79 183 3.0 4.0 0.00 0.00 0.00 56 1017.1
20260903092540 79 182 4.0 7.0 0.00 0.00 0.00 56 1017.2
20260903091520 78 158 3.0 4.0 0.00 0.00 0.00 60 1017.3
20260903090532 78 153 2.0 4.0 0.00 0.00 0.00 60 1017.3
20260903085544 78 174 3.0 7.0 0.00 0.00 0.00 58 1017.4
20260903084520 78 158 1.0 2.0 0.00 0.00 0.00 58 1017.5
20260903083531 78 152 2.0 4.0 0.00 0.00 0.00 57 1017.5
20260903082519 77 193 2.0 7.0 0.00 0.00 0.00 58 1017.6
20260903081544 78 173 3.0 7.0 0.00 0.00 0.00 61 1017.5
20260903080543 77 169 4.0 7.0 0.00 0.00 0.00 62 1017.5
20260903075520 78 170 2.0 4.0 0.00 0.00 0.00 63 1017.4
20260903074520 77 180 2.0 2.0 0.00 0.00 0.00 63 1017.4
20260903073556 77 180 3.0 4.0 0.00 0.00 0.00 62 1017.5
20260903072552 78 180 1.0 4.0 0.00 0.00 0.00 60 1017.5
20260903071531 78 180 2.0 4.0 0.00 0.00 0.00 60 1017.5
20260903070520 76 180 2.0 4.0 0.00 0.00 0.00 62 1017.5
20260903065519 76 180 2.0 4.0 0.00 0.00 0.00 62 1017.4
20260903064540 78 180 2.0 4.0 0.00 0.00 0.00 60 1017.4
20260903063520 79 114 2.0 4.0 0.00 0.00 0.00 53 1017.3
20260903062520 79 23 2.0 4.0 0.00 0.00 0.00 51 1017.4
20260903061520 80 0.0 0.0 0.00 0.00 0.00 49 1017.3
20260903060543 83 0.0 0.0 0.00 0.00 0.00 50 1017.3
20260903055520 80 0.0 0.0 0.00 0.00 0.00 55 1017.4
20260903054532 78 0.0 0.0 0.00 0.00 0.00 61 1017.3
20260903053519 76 23 1.0 2.0 0.00 0.00 0.00 66 1017.2
20260903052520 75 23 1.0 4.0 0.00 0.00 0.00 67 1017.2
20260903051520 74 23 2.0 4.0 0.00 0.00 0.00 71 1017.3
20260903050540 73 23 0.0 2.0 0.00 0.00 0.00 73 1017.3
20260903045520 70 0.0 0.0 0.00 0.00 0.00 85 1017.4
20260903044520 67 0.0 0.0 0.00 0.00 0.00 93 1017.3
20260903043520 64 23 1.0 2.0 0.00 0.00 0.00 98 1017.3
20260903042520 64 23 2.0 4.0 0.00 0.00 0.00 99 1017.3
20260903041520 63 0.0 0.0 0.00 0.00 0.00 99 1017.3
20260903040540 62 0.0 0.0 0.00 0.00 0.00 99 1017.3
20260903035519 62 0.0 0.0 0.00 0.00 0.00 99 1017.2
20260903034520 62 0.0 0.0 0.00 0.00 0.00 99 1017.0
20260903033519 62 0.0 0.0 0.00 0.00 0.00 99 1017.1
20260903032552 62 0.0 0.0 0.00 0.00 0.00 99 1017.0
20260903031520 62 0.0 0.0 0.00 0.00 0.00 99 1017.0
20260903025552 62 0.0 0.0 0.00 0.00 0.00 99 1017.1
20260903024520 61 0.0 0.0 0.00 0.00 0.00 99 1017.0
20260903023520 62 0.0 0.0 0.00 0.00 0.00 99 1016.9
20260903022540 62 0.0 0.0 0.00 0.00 0.00 99 1017.0
20260903021520 62 0.0 0.0 0.00 0.00 0.00 99 1017.1
20260903020532 62 0.0 0.0 0.00 0.00 0.00 99 1017.2
20260903015519 62 0.0 0.0 0.00 0.00 0.00 99 1017.1
20260903014532 62 0.0 0.0 0.00 0.00 0.00 99 1017.1
20260903013519 62 23 0.0 2.0 0.00 0.00 0.00 99 1017.1
20260903012544 63 0.0 0.0 0.00 0.00 0.00 99 1017.0
20260903011520 63 0.0 0.0 0.00 0.00 0.00 99 1017.1
20260903010520 63 0.0 0.0 0.00 0.00 0.00 99 1017.1
20260903005520 63 0.0 0.0 0.00 0.00 0.00 99 1017.1
20260903004520 63 0.0 0.0 0.00 0.00 0.00 99 1017.1
20260903003520 64 0.0 0.0 0.00 0.00 0.00 99 1017.1
20260903002520 64 0.0 0.0 0.00 0.00 0.00 99 1017.0
20260903001520 64 0.0 0.0 0.00 0.00 0.00 99 1017.0
20260903000520 65 0.0 0.0 0.00 0.00 0.00 99 1017.1
20260902235520 64 0.0 0.0 0.00 0.00 0.00 99 1017.0
20260902234540 64 0.0 0.0 0.00 0.00 0.00 99 1017.0
20260902233520 64 0.0 0.0 0.00 0.00 0.00 99 1017.2
20260902232520 65 0.0 0.0 0.00 0.00 0.00 99 1017.3
20260902231540 65 0.0 0.0 0.00 0.00 0.00 99 1017.4
20260902230520 65 0.0 0.0 0.00 0.00 0.00 99 1017.6
20260902225520 65 0.0 0.0 0.00 0.00 0.00 99 1017.6
20260902224520 66 0.0 0.0 0.00 0.00 0.00 99 1017.6
20260902223520 66 0.0 0.0 0.00 0.00 0.00 98 1017.6
20260902222520 66 0.0 0.0 0.00 0.00 0.00 98 1017.7
20260902221532 67 0.0 0.0 0.00 0.00 0.00 98 1017.8
20260902220532 67 0.0 0.0 0.00 0.00 0.00 98 1017.8
20260902215540 68 0.0 0.0 0.00 0.00 0.00 98 1017.9
20260902214532 68 158 0.0 2.0 0.00 0.00 0.00 98 1017.8
20260902213556 68 158 1.0 2.0 0.00 0.00 0.00 98 1017.7
20260902212520 68 158 0.0 2.0 0.00 0.00 0.00 97 1017.7
20260902211616 68 0.0 0.0 0.00 0.00 0.00 97 1017.6
20260902210540 68 0.0 0.0 0.00 0.00 0.00 97 1017.6
20260902205520 68 0.0 0.0 0.00 0.00 0.00 96 1017.6
20260902204520 69 0.0 0.0 0.00 0.00 0.00 96 1017.6
20260902203531 69 0.0 0.0 0.00 0.00 0.00 95 1017.7
20260902202632 69 0.0 0.0 0.00 0.00 0.00 95 1017.7
20260902201520 70 0.0 0.0 0.00 0.00 0.00 95 1017.7
20260902200520 70 0.0 0.0 0.00 0.00 0.00 94 1017.7
20260902195544 70 0.0 0.0 0.00 0.00 0.00 94 1017.7
20260902194520 70 0.0 0.0 0.00 0.00 0.00 94 1017.7
20260902193520 70 158 0.0 2.0 0.00 0.00 0.00 93 1017.8
20260902192532 70 158 0.0 2.0 0.00 0.00 0.00 93 1017.8
20260902191532 70 158 1.0 2.0 0.00 0.00 0.00 93 1017.9
20260902190520 71 0.0 0.0 0.00 0.00 0.00 92 1017.9
20260902185532 71 158 0.0 2.0 0.00 0.00 0.00 92 1017.9
20260902184532 71 158 1.0 2.0 0.00 0.00 0.00 91 1018.0
20260902183544 71 158 1.0 2.0 0.00 0.00 0.00 91 1018.1
20260902182520 71 158 2.0 4.0 0.00 0.00 0.00 90 1018.0
20260902181532 71 160 2.0 4.0 0.00 0.00 0.00 91 1018.0
20260902180520 71 180 2.0 4.0 0.00 0.00 0.00 91 1017.9
20260902175520 71 180 2.0 4.0 0.00 0.00 0.00 91 1017.8
20260902174520 71 180 1.0 4.0 0.00 0.00 0.00 91 1017.7
20260902173532 71 180 1.0 2.0 0.00 0.00 0.00 90 1017.6
20260902172520 71 180 2.0 4.0 0.00 0.00 0.00 90 1017.6
20260902171520 71 169 1.0 4.0 0.00 0.00 0.00 89 1017.5
20260902170532 72 158 0.0 2.0 0.00 0.00 0.00 88 1017.3
20260902165520 72 180 1.0 4.0 0.00 0.00 0.00 87 1017.3
20260902164520 72 180 2.0 7.0 0.00 0.00 0.00 87 1017.4
20260902163544 72 197 1.0 4.0 0.00 0.00 0.00 86 1017.4
20260902162520 72 180 1.0 4.0 0.00 0.00 0.00 86 1017.5
20260902161520 73 158 1.0 4.0 0.00 0.00 0.00 86 1017.5
20260902160520 73 189 2.0 4.0 0.00 0.00 0.00 85 1017.6
20260902155520 73 195 2.0 4.0 0.00 0.00 0.00 84 1017.6
20260902154520 74 180 2.0 4.0 0.00 0.00 0.00 84 1017.7
20260902153520 74 173 4.0 7.0 0.00 0.00 0.00 83 1017.7
20260902152520 74 194 3.0 4.0 0.00 0.00 0.00 82 1017.7
20260902151520 76 190 2.0 4.0 0.00 0.00 0.00 80 1017.7
20260902150600 77 183 2.0 4.0 0.00 0.00 0.00 79 1017.7
20260902145520 76 193 2.0 9.0 0.00 0.00 0.00 81 1017.8
20260902144520 76 141 2.0 7.0 0.00 0.00 0.00 81 1017.8
20260902143520 76 189 5.0 9.0 0.00 0.00 0.00 80 1017.7
20260902142520 76 176 4.0 7.0 0.00 0.00 0.00 80 1017.8
20260902141520 77 177 4.0 9.0 0.00 0.00 0.00 80 1017.8
20260902140532 76 122 4.0 7.0 0.00 0.00 0.00 82 1018.0
20260902135520 77 181 4.0 9.0 0.00 0.00 0.00 80 1018.0
20260902134520 76 163 4.0 7.0 0.00 0.00 0.00 82 1018.1
20260902133532 76 163 3.0 7.0 0.00 0.00 0.00 83 1018.2
20260902132520 76 178 4.0 7.0 0.00 0.00 0.00 82 1018.3
20260902131520 76 121 3.0 4.0 0.00 0.00 0.00 84 1018.3
20260902130520 77 172 5.0 9.0 0.00 0.00 0.00 83 1018.3
20260902125520 77 186 5.0 9.0 0.00 0.00 0.00 82 1018.3
20260902124520 77 156 4.0 11.0 0.00 0.00 0.00 83 1018.4
20260902123532 77 167 4.0 9.0 0.00 0.00 0.00 83 1018.4
20260902122544 76 161 5.0 11.0 0.00 0.00 0.00 83 1018.5
20260902121520 77 171 4.0 9.0 0.00 0.00 0.00 82 1018.5
20260902120520 77 134 4.0 9.0 0.00 0.00 0.00 82 1018.7
20260902115532 77 175 4.0 11.0 0.00 0.00 0.00 83 1018.6
20260902114520 76 128 4.0 9.0 0.00 0.00 0.00 83 1018.7
20260902113520 77 161 4.0 7.0 0.00 0.00 0.00 83 1018.8
20260902112520 76 170 4.0 9.0 0.00 0.00 0.00 84 1018.9
20260902111520 76 175 4.0 9.0 0.00 0.00 0.00 83 1018.9
20260902110520 77 149 4.0 9.0 0.00 0.00 0.00 80 1019.0
20260902105520 76 135 5.0 9.0 0.00 0.00 0.00 83 1018.9
20260902104544 77 148 5.0 9.0 0.00 0.00 0.00 82 1019.0
20260902103540 76 124 4.0 9.0 0.00 0.00 0.00 82 1019.0
20260902102520 76 188 5.0 9.0 0.00 0.00 0.00 82 1019.1
20260902101540 77 179 5.0 9.0 0.00 0.00 0.00 81 1019.2
20260902100520 77 169 4.0 7.0 0.00 0.00 0.00 79 1019.3
20260902095520 77 181 3.0 7.0 0.00 0.00 0.00 80 1019.4
20260902094520 77 161 3.0 7.0 0.00 0.00 0.00 79 1019.4